Date,TemperatureHighF,TemperatureAvgF,TemperatureLowF,DewpointHighF,DewpointAvgF,DewpointLowF,HumidityHigh,HumidityAvg,HumidityLow,PressureMaxIn,PressureMinIn,WindSpeedMaxMPH,WindSpeedAvgMPH,GustSpeedMaxMPH,PrecipitationSumIn
2013-1-1,78,72,64,62,59,57,84,65,52,30.17,30.02,41,8,41,0.00
2013-1-2,83,71,61,67,62,58,95,76,47,30.07,29.96,22,2,22,0.00
2013-1-3,82,72,66,70,66,64,96,81,56,30.10,30.00,24,2,24,0.04
2013-1-4,80,70,64,71,66,62,96,89,68,30.19,30.07,18,1,18,0.00
2013-1-5,75,69,66,70,66,63,96,91,77,30.23,30.13,21,3,21,0.24
2013-1-6,81,72,64,74,68,62,97,85,66,30.16,30.04,32,5,32,0.05
2013-1-7,75,70,67,70,67,65,96,89,74,30.13,30.04,21,1,21,0.01
2013-1-8,82,75,69,73,70,67,96,85,67,30.17,30.04,28,3,28,0.08
2013-1-9,81,77,74,71,69,67,86,78,68,30.24,30.12,40,7,40,0.00
2013-1-10,80,76,72,69,65,60,80,70,54,30.26,30.15,44,6,44,0.00
2013-1-11,81,75,70,70,66,64,86,75,62,30.22,30.12,34,7,34,0.02
2013-1-12,80,73,65,69,66,62,91,79,61,30.15,30.06,27,3,27,0.01
2013-1-13,81,74,65,67,64,61,93,72,53,30.10,30.04,37,5,37,0.00
2013-1-14,80,72,64,65,62,60,89,73,55,30.14,30.09,43,4,43,0.00
2013-1-15,79,72,64,69,65,61,93,80,63,30.10,30.01,26,2,26,0.00
2013-1-16,80,72,62,70,66,60,96,82,62,30.07,29.99,29,4,29,0.03
2013-1-17,80,70,59,71,65,53,96,84,65,30.07,29.95,51,8,51,0.05
2013-1-18,70,62,52,59,52,45,81,69,59,30.20,30.06,36,15,36,0.00
2013-1-19,70,68,63,67,63,56,95,86,62,30.19,30.07,26,3,26,0.19
2013-1-20,80,70,63,70,65,61,97,87,60,30.12,29.98,21,2,21,0.25
2013-1-21,80,71,64,72,66,63,97,86,67,30.04,29.93,26,3,26,0.02
2013-1-22,75,67,61,64,58,53,94,76,55,30.18,29.98,37,13,37,0.00
2013-1-23,73,66,59,59,54,50,84,67,46,30.27,30.16,35,10,35,0.00
2013-1-24,75,64,56,54,52,44,89,66,43,30.26,30.16,27,7,27,0.00
2013-1-25,76,65,56,57,54,50,88,69,45,30.26,30.15,24,4,24,0.00
2013-1-26,78,66,57,60,57,50,94,75,45,30.23,30.13,24,4,24,0.00
2013-1-27,78,69,61,63,59,57,91,72,52,30.25,30.17,33,9,33,0.00
2013-1-28,80,74,70,65,62,60,77,67,54,30.28,30.19,35,7,35,0.00
2013-1-29,80,74,67,69,65,63,91,76,62,30.20,30.09,45,8,45,0.00
2013-1-30,80,74,70,68,64,62,88,73,61,30.09,29.94,48,12,48,0.00
2013-1-31,72,66,58,70,58,40,96,78,47,30.15,29.92,43,9,43,0.00
2013-2-1,72,61,51,54,47,35,73,60,50,30.24,30.13,41,15,41,0.00
2013-2-2,74,63,53,53,47,36,86,59,42,30.23,30.09,32,4,32,0.00
2013-2-3,74,62,54,54,47,35,92,63,26,30.14,30.04,28,6,28,0.00
2013-2-4,75,61,48,54,47,37,89,64,29,30.11,30.00,24,2,24,0.00
2013-2-5,79,66,52,62,57,50,95,76,49,30.05,29.97,24,2,24,0.00
2013-2-6,79,69,59,66,61,58,96,78,58,30.07,29.99,20,0,20,0.00
2013-2-7,80,72,62,65,62,60,93,74,52,30.04,29.92,30,3,30,0.00
2013-2-8,83,74,65,69,67,58,93,80,59,30.00,29.88,34,5,34,0.00
2013-2-9,79,70,61,67,61,55,96,76,58,30.13,29.98,40,9,40,0.00
2013-2-10,75,71,66,65,60,55,87,71,64,30.23,30.12,38,7,38,0.06
2013-2-11,78,72,64,65,63,59,87,74,62,30.18,30.08,32,6,32,0.00
2013-2-12,85,73,63,68,64,59,95,76,43,30.09,29.94,34,6,34,0.00
2013-2-13,86,76,69,71,68,65,94,77,51,29.98,29.87,41,9,41,0.00
2013-2-14,81,71,62,72,67,60,96,88,67,29.98,29.83,53,7,53,0.55
2013-2-15,72,66,62,68,64,61,97,94,77,29.99,29.92,24,2,24,0.25
2013-2-16,74,65,54,63,56,45,97,76,38,30.05,29.85,48,14,48,0.01
2013-2-17,58,51,44,45,28,15,71,44,22,30.27,30.04,51,20,51,0.00
2013-2-18,68,59,46,55,44,32,71,59,45,30.29,30.17,41,12,41,0.00
2013-2-19,78,70,59,66,60,53,92,71,59,30.17,30.06,38,11,38,0.02
2013-2-20,78,70,64,66,63,56,96,82,46,30.08,29.99,24,3,24,0.01
2013-2-21,81,72,64,68,64,62,96,78,57,30.06,29.96,28,4,28,0.00
2013-2-22,81,75,70,70,68,65,89,80,65,30.07,29.98,38,11,38,0.00
2013-2-23,84,77,73,71,69,67,90,77,58,30.01,29.89,34,12,34,0.00
2013-2-24,88,77,71,73,69,60,96,77,40,29.97,29.87,27,2,27,0.00
2013-2-25,84,75,68,73,69,65,95,82,59,29.89,29.78,33,7,33,0.02
2013-2-26,85,79,75,72,69,66,88,74,56,29.87,29.77,53,17,53,0.00
2013-2-27,77,70,64,73,65,61,96,85,63,29.94,29.83,25,6,25,0.11
2013-2-28,69,64,59,64,54,48,96,72,52,29.98,29.88,29,9,29,0.00
2013-3-1,64,61,57,56,51,46,86,69,58,29.97,29.88,31,10,31,0.00
2013-3-2,65,57,51,47,42,34,71,57,40,30.01,29.93,56,17,56,0.00
2013-3-3,62,54,48,46,42,38,90,67,44,30.12,29.93,47,13,47,0.02
2013-3-4,69,53,41,42,36,29,81,54,26,30.18,30.09,36,11,36,0.00
2013-3-5,76,62,47,56,51,42,94,70,45,30.15,30.06,36,6,36,0.00
2013-3-6,78,65,51,64,50,22,92,64,21,30.07,29.93,51,18,51,0.00
2013-3-7,72,58,46,54,43,34,89,59,36,30.16,30.04,33,10,33,0.00
2013-3-8,76,62,51,52,49,37,94,66,25,30.17,30.07,27,7,27,0.00
2013-3-9,74,63,53,56,52,49,92,68,47,30.16,30.07,37,9,37,0.00
2013-3-10,75,69,62,60,55,51,72,61,46,30.13,30.04,39,11,39,0.00
2013-3-11,77,71,67,61,59,55,75,66,49,30.07,29.93,35,11,35,0.00
2013-3-12,81,74,68,67,64,61,84,72,56,29.97,29.88,40,14,40,0.00
2013-3-13,75,65,56,65,52,39,91,66,30,30.09,29.95,36,13,36,0.00
2013-3-14,72,60,53,53,44,34,90,60,28,30.18,30.06,40,15,40,0.00
2013-3-15,72,62,51,53,48,43,78,62,35,30.22,30.12,32,10,32,0.00
2013-3-16,75,64,51,57,52,49,95,68,44,30.16,30.06,29,5,29,0.00
2013-3-17,76,67,56,60,57,52,93,72,51,30.12,30.00,35,6,35,0.00
2013-3-18,79,71,63,69,64,58,94,80,64,30.04,29.94,40,11,40,0.05
2013-3-19,79,72,67,70,67,64,95,84,62,29.99,29.80,39,5,39,0.00
2013-3-20,85,72,64,69,62,55,96,74,43,29.95,29.78,45,5,45,0.00
2013-3-21,75,67,61,61,50,34,92,61,25,29.92,29.81,34,12,34,0.00
2013-3-22,76,70,52,69,60,49,90,72,55,29.98,29.87,38,11,38,0.00
2013-3-23,87,78,71,73,69,63,95,76,49,29.95,29.78,34,8,34,0.02
2013-3-24,88,80,74,73,70,67,94,75,52,29.86,29.67,64,19,64,0.01
2013-3-25,78,73,64,72,59,41,93,65,35,29.96,29.72,40,9,40,0.01
2013-3-26,66,60,50,45,37,30,61,44,27,30.18,29.96,45,22,45,0.00
2013-3-27,68,56,45,46,39,33,77,55,32,30.23,30.14,37,12,37,0.00
2013-3-28,73,60,49,48,43,35,81,56,27,30.24,30.13,32,8,32,0.00
2013-3-29,74,64,54,52,48,41,73,57,38,30.26,30.17,34,9,34,0.00
2013-3-30,75,65,54,56,51,46,90,63,38,30.23,30.13,25,3,25,0.00
2013-3-31,80,70,58,65,60,53,91,72,52,30.16,30.02,45,8,45,0.00
2013-4-1,86,75,67,70,65,55,90,74,40,30.02,29.92,43,5,43,0.13
2013-4-2,84,73,64,68,64,59,96,76,46,30.05,29.96,21,2,21,0.00
2013-4-3,83,75,66,69,66,64,94,76,55,30.04,29.96,35,5,35,0.00
2013-4-4,84,75,68,71,68,66,96,81,57,30.02,29.89,53,9,53,1.74
2013-4-5,72,68,64,70,65,62,96,92,80,29.96,29.80,34,5,34,0.73
2013-4-6,76,68,59,65,60,56,93,77,61,30.05,29.90,33,11,33,0.02
2013-4-7,77,72,68,64,62,59,80,70,58,30.11,29.99,29,8,29,0.00
2013-4-8,81,71,60,64,60,52,94,70,39,30.10,30.01,30,2,30,0.00
2013-4-9,80,73,65,67,64,62,92,75,61,30.12,30.02,33,6,33,0.00
2013-4-10,83,77,71,71,68,65,84,76,63,30.07,29.97,39,6,39,0.00
2013-4-11,83,78,74,72,70,69,88,78,66,29.99,29.87,44,16,44,0.04
2013-4-12,86,79,71,76,73,67,93,81,67,29.92,29.84,50,11,50,2.23
2013-4-13,84,77,72,74,72,69,94,85,66,29.95,29.85,21,2,21,0.16
2013-4-14,86,78,72,75,72,69,96,82,59,29.94,29.87,40,8,40,0.00
2013-4-15,89,78,70,74,72,68,95,84,54,30.03,29.90,36,3,36,0.30
2013-4-16,86,78,71,76,71,69,97,82,62,30.09,29.99,34,6,34,0.01
2013-4-17,83,77,72,70,68,66,88,73,58,30.08,29.99,30,7,30,0.00
2013-4-18,85,79,73,72,69,65,86,72,54,30.03,29.95,32,6,32,0.00
2013-4-19,86,81,77,72,70,67,82,72,54,30.02,29.93,44,17,44,0.00
2013-4-20,90,78,72,75,72,67,94,81,50,30.04,29.90,66,3,66,0.20
2013-4-21,84,76,72,72,70,66,95,82,59,30.06,29.96,40,4,40,0.01
2013-4-22,84,73,67,71,68,64,96,86,58,30.02,29.89,43,2,43,1.22
2013-4-23,81,74,67,71,65,60,97,76,55,30.06,29.92,36,6,36,0.00
2013-4-24,83,75,66,65,62,59,88,64,51,30.10,30.00,21,1,21,0.00
2013-4-25,81,75,67,63,61,59,80,62,48,30.16,30.04,24,2,24,0.00
2013-4-26,81,73,64,65,63,60,91,70,55,30.19,30.08,35,5,35,0.00
2013-4-27,81,76,69,66,63,59,76,65,50,30.17,30.05,33,6,33,0.00
2013-4-28,81,76,73,65,62,60,75,62,51,30.08,29.97,27,3,27,0.00
2013-4-29,83,77,73,72,67,61,88,73,61,30.00,29.91,34,2,34,0.04
2013-4-30,84,76,70,71,69,65,91,80,60,29.97,29.90,36,1,36,0.04
2013-5-1,84,74,69,74,70,67,96,88,64,29.98,29.89,32,1,32,0.60
2013-5-2,79,72,69,73,69,67,96,92,78,29.91,29.75,48,6,48,1.66
2013-5-3,86,74,68,70,68,64,96,83,50,29.79,29.66,31,2,31,0.28
2013-5-4,87,76,68,70,67,64,97,76,49,29.78,29.66,30,4,30,0.01
2013-5-5,80,73,65,67,62,53,92,70,41,29.90,29.73,32,7,32,0.00
2013-5-6,85,71,57,64,59,55,95,67,40,29.99,29.89,25,1,25,0.00
2013-5-7,84,73,62,62,59,54,90,64,38,30.03,29.94,30,5,30,0.00
2013-5-8,86,74,61,65,59,51,94,64,33,30.10,30.01,23,2,23,0.00
2013-5-9,86,76,63,72,66,58,92,72,49,30.10,30.03,30,1,30,0.00
2013-5-10,88,79,72,73,70,67,90,76,52,30.10,29.99,26,3,26,0.00
2013-5-11,87,78,71,74,71,67,95,81,62,30.04,29.95,41,6,41,0.25
2013-5-12,91,78,71,74,71,67,96,82,48,30.03,29.92,36,2,36,0.80
2013-5-13,87,77,70,74,69,63,97,77,55,30.05,29.96,27,2,27,0.01
2013-5-14,80,74,68,66,60,54,86,63,46,30.14,30.03,34,8,34,0.00
2013-5-15,81,73,64,63,60,55,88,64,43,30.16,30.06,32,5,32,0.00
2013-5-16,83,74,63,63,60,56,85,63,45,30.08,30.01,23,2,23,0.00
2013-5-17,88,77,67,71,68,62,90,74,46,30.05,29.98,23,1,23,0.01
2013-5-18,85,79,72,73,70,68,92,76,62,30.07,29.99,32,3,32,0.00
2013-5-19,86,78,70,72,68,64,93,72,53,30.07,29.97,24,2,24,0.00
2013-5-20,80,75,69,74,71,67,96,87,76,30.04,29.94,30,2,30,2.66
2013-5-21,84,76,70,75,70,66,96,83,58,30.01,29.90,35,3,35,0.03
2013-5-22,86,76,72,75,72,68,94,87,66,29.94,29.87,29,1,29,0.37
2013-5-23,91,81,73,76,71,63,96,75,43,29.98,29.88,27,1,27,0.00
2013-5-24,92,81,73,75,72,64,94,75,47,30.02,29.91,25,1,25,0.01
2013-5-25,84,79,74,74,67,63,91,68,51,30.12,30.01,39,14,39,0.00
2013-5-26,83,77,69,67,64,60,81,63,49,30.14,30.07,35,11,35,0.00
2013-5-27,83,78,74,72,69,63,93,73,63,30.12,30.03,43,17,43,0.17
2013-5-28,82,78,74,73,71,69,93,80,69,30.07,30.00,35,10,35,0.44
2013-5-29,81,75,71,74,71,67,96,88,72,30.06,29.99,48,8,48,2.40
2013-5-30,83,78,72,74,71,68,94,80,68,30.04,29.97,54,12,54,0.09
2013-5-31,84,78,75,74,73,71,93,83,67,30.02,29.97,34,6,34,0.25
2013-6-1,83,76,74,77,74,72,96,92,73,29.99,29.92,25,1,25,0.84
2013-6-2,89,78,72,78,73,70,97,86,58,29.98,29.89,30,2,30,0.32
2013-6-3,87,79,73,75,73,69,96,83,58,30.00,29.88,21,2,21,0.01
2013-6-4,86,79,73,76,73,70,96,84,61,30.02,29.93,21,1,21,0.06
2013-6-5,84,81,78,76,75,73,88,82,73,29.99,29.87,22,2,22,0.01
2013-6-6,88,80,75,79,75,71,95,84,66,29.88,29.75,51,16,51,0.86
2013-6-7,88,77,74,76,73,71,97,88,64,29.97,29.81,51,7,51,2.45
2013-6-8,88,80,74,77,74,72,96,84,65,30.07,29.93,28,3,28,0.01
2013-6-9,86,82,79,75,73,70,85,75,61,30.07,30.01,39,5,39,0.00
2013-6-10,88,83,79,76,74,73,84,76,64,30.06,29.98,27,4,27,0.00
2013-6-11,88,82,77,77,75,70,92,81,58,30.07,29.98,31,2,31,0.32
2013-6-12,90,79,76,77,74,72,93,85,58,30.04,29.98,21,0,21,0.19
2013-6-13,90,79,74,78,73,68,96,82,51,30.03,29.92,25,2,25,0.04
2013-6-14,92,80,73,75,72,69,94,78,48,29.95,29.85,44,6,44,0.59
2013-6-15,92,82,75,76,73,68,96,77,49,30.02,29.90,20,2,20,0.00
2013-6-16,90,82,74,76,74,71,95,76,55,30.06,29.98,30,4,30,0.00
2013-6-17,90,84,76,76,74,70,91,73,55,30.05,29.97,27,5,27,0.00
2013-6-18,90,84,77,75,74,71,92,73,55,30.04,29.96,30,7,30,0.00
2013-6-19,90,83,77,77,74,71,92,74,54,30.02,29.95,31,6,31,0.00
2013-6-20,92,80,73,76,72,69,95,78,53,30.06,29.98,44,4,44,0.54
2013-6-21,90,82,76,76,72,66,95,73,49,30.08,29.99,26,4,26,0.21
2013-6-22,90,83,76,75,72,69,90,70,55,30.07,30.00,32,5,32,0.00
2013-6-23,89,82,77,75,72,68,89,71,56,30.09,30.01,34,6,34,0.20
2013-6-24,88,82,76,76,73,70,91,74,58,30.13,30.04,35,6,35,0.35
2013-6-25,89,82,76,76,74,70,93,76,61,30.09,30.00,30,6,30,0.06
2013-6-26,89,83,78,77,74,70,90,74,55,30.05,29.98,32,6,32,0.02
2013-6-27,87,82,76,76,73,69,90,77,64,30.03,29.93,33,2,33,0.00
2013-6-28,90,81,73,76,73,70,95,79,54,29.96,29.83,29,4,29,0.87
2013-6-29,90,80,73,78,74,70,96,84,53,29.88,29.81,43,2,43,0.09
2013-6-30,89,80,76,78,74,70,92,80,57,29.91,29.82,56,9,56,0.28
2013-7-1,88,81,76,76,74,71,90,80,62,30.00,29.88,45,11,45,0.04
2013-7-2,88,82,76,77,74,72,91,80,66,30.08,29.94,38,9,38,0.01
2013-7-3,88,82,76,76,74,70,90,77,65,30.09,30.01,50,12,50,0.19
2013-7-4,88,82,75,76,74,68,94,77,62,30.13,30.03,54,9,54,0.20
2013-7-5,86,80,75,77,74,72,95,82,68,30.10,30.02,47,6,47,0.10
2013-7-6,88,82,78,76,73,70,90,74,58,30.08,30.00,38,7,38,0.09
2013-7-7,87,82,76,74,73,70,92,74,61,30.07,29.99,43,9,43,0.02
2013-7-8,88,82,76,74,72,70,86,71,57,30.11,30.04,29,4,29,0.00
2013-7-9,87,80,75,74,71,67,92,74,55,30.10,30.02,32,5,32,0.00
2013-7-10,85,78,73,75,73,70,95,85,67,30.06,29.98,28,2,28,0.68
2013-7-11,90,81,75,78,73,70,97,80,56,30.01,29.92,31,1,30,0.01
2013-7-12,88,80,75,76,73,68,95,81,53,29.95,29.87,44,1,43,0.36
2013-7-13,87,76,72,74,72,69,97,88,62,29.99,29.89,30,2,30,2.00
2013-7-14,89,78,72,74,72,70,97,85,57,30.07,29.95,34,4,34,1.11
2013-7-15,88,80,72,77,72,69,97,79,56,30.06,29.98,26,4,26,0.05
2013-7-16,83,78,73,75,71,69,95,81,64,30.12,30.01,62,8,62,0.34
2013-7-17,79,74,72,76,72,68,97,93,77,30.12,30.02,36,3,36,2.06
2013-7-18,83,76,72,77,73,69,97,93,75,30.10,30.02,40,2,40,0.23
2013-7-19,88,80,73,78,75,72,97,84,64,30.10,30.01,31,5,31,0.06
2013-7-20,87,81,76,78,75,70,93,84,59,30.09,30.00,36,5,36,0.03
2013-7-21,89,81,76,78,75,70,95,83,64,30.11,30.02,23,2,23,0.11
2013-7-22,90,83,77,77,74,69,93,74,53,30.12,30.04,26,5,26,0.00
2013-7-23,94,84,76,76,73,63,93,73,40,30.07,29.94,32,3,32,0.00
2013-7-24,92,84,77,78,73,68,95,73,46,29.99,29.88,29,6,29,0.14
2013-7-25,92,84,75,74,73,70,92,71,53,29.99,29.89,30,8,30,0.00
2013-7-26,92,82,75,77,74,71,95,78,53,30.00,29.90,39,10,39,0.83
2013-7-27,86,79,75,79,75,72,96,88,67,29.98,29.90,36,2,36,0.55
2013-7-28,86,81,76,76,75,71,95,83,65,30.04,29.92,25,1,25,0.03
2013-7-29,90,82,75,77,75,72,95,80,56,30.10,29.99,30,2,26,0.00
2013-7-30,89,84,75,78,75,72,92,76,61,30.13,30.05,30,4,30,0.03
2013-7-31,90,84,77,76,74,71,91,73,57,30.08,29.98,30,4,30,0.00
2013-8-1,89,83,77,74,73,68,87,71,56,30.02,29.91,32,6,32,0.00
2013-8-2,90,80,75,76,73,68,93,79,55,30.02,29.89,36,1,36,0.55
2013-8-3,87,78,71,77,74,68,96,89,68,30.10,29.99,74,1,70,1.05
2013-8-4,94,82,76,77,74,69,97,81,46,30.08,29.96,35,2,35,0.16
2013-8-5,91,81,76,79,75,71,94,82,56,30.01,29.92,41,5,41,0.26
2013-8-6,91,81,75,78,74,72,96,82,59,29.96,29.86,35,2,35,0.06
2013-8-7,89,82,75,78,74,71,96,79,60,29.95,29.87,43,6,43,0.00
2013-8-8,90,84,78,77,74,70,91,72,55,29.98,29.89,38,7,38,0.12
2013-8-9,87,82,79,75,72,69,82,73,61,30.02,29.92,43,8,43,0.02
2013-8-10,89,82,79,76,74,72,84,77,62,30.08,30.00,32,4,32,0.00
2013-8-11,90,85,80,76,74,72,82,72,58,30.10,30.03,27,5,27,0.00
2013-8-12,90,82,76,77,74,70,92,76,58,30.07,29.98,32,6,32,0.15
2013-8-13,91,84,77,77,74,69,93,73,52,30.01,29.93,28,5,28,0.00
2013-8-14,91,83,76,76,73,69,94,74,54,29.99,29.90,29,5,29,0.00
2013-8-15,86,80,75,76,75,71,95,83,70,30.03,29.93,31,2,31,0.26
2013-8-16,91,84,78,78,76,73,92,76,58,30.02,29.95,26,3,26,0.00
2013-8-17,90,85,80,77,76,74,86,74,59,30.05,29.97,28,4,28,0.00
2013-8-18,90,84,80,77,75,74,86,74,63,30.05,29.96,38,6,38,0.05
2013-8-19,90,84,77,78,75,72,91,74,60,30.03,29.93,39,5,39,0.02
2013-8-20,90,84,80,76,74,70,86,71,55,30.03,29.95,36,6,36,0.00
2013-8-21,88,82,78,79,76,72,93,81,66,30.04,29.96,34,6,34,0.34
2013-8-22,90,83,73,78,75,69,96,79,60,30.04,29.93,45,3,40,0.20
2013-8-23,90,82,77,77,74,71,92,77,59,29.98,29.90,28,2,28,0.00
2013-8-24,91,82,75,78,74,69,94,78,57,30.08,29.94,31,3,31,0.20
2013-8-25,86,80,75,77,74,71,95,85,67,30.12,29.99,25,4,25,0.23
2013-8-26,89,81,75,76,73,68,92,78,57,30.08,29.98,34,2,34,0.00
2013-8-27,87,78,73,74,72,67,94,82,55,30.02,29.94,23,1,23,0.12
2013-8-28,87,79,74,76,73,70,94,83,61,30.01,29.92,32,3,32,0.25
2013-8-29,90,81,74,75,73,70,94,77,54,29.99,29.90,23,2,23,0.00
2013-8-30,91,83,75,75,72,67,94,72,45,29.98,29.87,29,3,29,0.00
2013-8-31,90,79,74,77,73,68,96,82,56,29.95,29.88,34,2,34,0.25
2013-9-1,89,78,73,79,74,70,97,89,56,29.98,29.90,28,1,28,0.04
2013-9-2,92,78,73,78,74,68,96,89,53,30.00,29.91,41,1,41,0.63
2013-9-3,89,79,72,78,74,71,97,85,60,29.99,29.90,16,0,16,0.14
2013-9-4,86,81,77,78,76,73,93,85,73,30.03,29.92,21,0,21,0.06
2013-9-5,89,83,78,77,75,73,91,78,59,30.04,29.96,18,2,18,0.00
2013-9-6,92,84,77,78,75,71,94,76,52,30.00,29.90,30,4,30,0.00
2013-9-7,85,78,73,77,74,69,95,87,66,29.96,29.87,43,4,43,0.09
2013-9-8,90,78,72,76,73,70,96,86,53,29.92,29.82,30,2,30,0.04
2013-9-9,89,81,73,76,73,70,94,77,58,29.96,29.86,31,6,31,0.01
2013-9-10,88,81,75,78,74,69,95,79,59,30.00,29.92,43,9,43,0.21
2013-9-11,82,78,73,78,74,71,96,87,72,30.02,29.93,43,4,43,0.70
2013-9-12,84,80,75,77,74,72,94,84,71,29.98,29.86,14,0,14,0.00
2013-9-13,91,82,74,77,73,69,96,76,50,29.87,29.78,18,1,18,0.00
2013-9-14,92,83,75,77,73,67,95,73,48,29.94,29.79,30,1,30,0.00
2013-9-15,86,80,78,78,75,71,92,84,71,30.01,29.89,33,3,33,0.07
2013-9-16,84,80,78,77,75,71,93,83,72,30.00,29.93,33,6,33,0.01
2013-9-17,82,79,74,76,74,72,95,85,76,30.00,29.88,31,6,31,0.67
2013-9-18,86,79,74,76,74,70,95,84,65,29.99,29.88,22,3,22,0.86
2013-9-19,88,79,73,77,73,70,96,83,64,29.97,29.89,34,6,34,0.02
2013-9-20,86,79,72,74,70,66,92,75,51,29.96,29.86,28,7,28,0.02
2013-9-21,89,80,72,74,72,70,94,78,58,29.88,29.75,21,2,21,0.01
2013-9-22,92,83,75,76,73,69,94,75,48,29.83,29.73,29,5,29,0.00
2013-9-23,88,80,75,77,75,71,95,88,67,29.94,29.82,40,1,40,0.59
2013-9-24,91,81,74,80,74,70,97,80,56,29.93,29.84,36,4,36,0.11
2013-9-25,87,79,74,77,73,70,91,82,62,29.88,29.78,26,2,26,0.16
2013-9-26,88,80,75,80,76,72,95,88,68,29.84,29.77,43,4,35,0.25
2013-9-27,88,80,74,76,72,67,96,79,53,29.89,29.79,23,2,21,0.00
2013-9-28,87,79,73,74,72,69,95,80,59,29.93,29.84,36,4,36,0.09
2013-9-29,87,79,72,75,70,66,96,77,52,29.93,29.84,14,0,14,0.03
2013-9-30,88,80,71,72,70,68,94,73,53,29.97,29.87,15,0,15,0.00
2013-10-1,87,81,74,73,71,68,88,70,57,29.99,29.92,34,8,34,0.00
2013-10-2,85,81,79,73,72,70,78,73,63,30.01,29.93,35,10,35,0.00
2013-10-3,87,81,76,74,72,69,89,76,64,30.02,29.91,24,3,24,0.00
2013-10-4,88,79,73,74,70,68,94,76,56,30.02,29.95,25,2,25,0.00
2013-10-5,83,76,71,72,70,68,94,84,62,30.00,29.91,20,0,20,0.00
2013-10-6,90,81,73,75,70,64,94,73,42,29.93,29.84,0,0,0,0.00
2013-10-7,91,78,73,74,71,68,94,80,51,29.87,29.78,62,4,62,0.10
2013-10-8,90,81,75,78,73,70,96,78,56,29.90,29.82,21,2,21,0.01
2013-10-9,86,78,71,75,71,68,93,82,68,29.96,29.87,33,5,33,0.00
2013-10-10,86,78,71,73,70,67,95,77,59,29.98,29.91,37,6,37,0.00
2013-10-11,86,77,68,70,67,65,95,74,51,29.98,29.91,31,4,31,0.00
2013-10-12,86,76,67,70,67,64,96,75,49,29.99,29.92,21,2,21,0.00
2013-10-13,84,76,70,71,66,60,95,73,49,30.02,29.93,28,4,28,0.00
2013-10-14,85,76,69,70,67,64,94,75,53,29.98,29.87,26,2,26,0.00
2013-10-15,85,77,70,72,69,66,96,78,53,29.92,29.84,24,3,24,0.00
2013-10-16,86,76,70,71,68,65,92,77,53,29.92,29.85,25,3,25,0.00
2013-10-17,87,77,69,73,69,67,96,78,55,29.93,29.86,20,1,20,0.00
2013-10-18,88,79,70,74,70,68,96,77,55,29.96,29.87,23,1,23,0.00
2013-10-19,89,81,72,73,71,68,94,74,55,29.93,29.84,23,3,23,0.00
2013-10-20,90,81,76,76,73,69,93,79,51,29.93,29.84,24,2,24,0.00
2013-10-21,90,82,75,76,73,71,92,77,58,29.97,29.87,23,2,23,0.00
2013-10-22,90,81,74,78,74,71,94,79,57,29.93,29.81,24,2,24,0.19
2013-10-23,88,80,75,75,72,66,92,77,59,29.92,29.79,30,4,30,0.00
2013-10-24,79,76,71,68,64,60,79,68,59,30.06,29.90,31,10,31,0.00
2013-10-25,81,75,68,66,63,60,82,68,49,30.12,30.03,45,13,45,0.00
2013-10-26,83,73,66,65,63,61,90,72,51,30.12,30.02,28,3,28,0.00
2013-10-27,83,72,64,64,62,59,87,70,49,30.06,29.99,26,5,26,0.00
2013-10-28,83,74,64,67,63,55,95,73,41,30.10,30.01,29,4,29,0.00
2013-10-29,84,75,66,68,65,63,95,73,53,30.13,30.05,40,12,40,0.00
2013-10-30,83,78,71,67,65,61,81,65,50,30.15,30.06,41,15,41,0.00
2013-10-31,85,79,73,71,68,64,81,71,56,30.08,29.96,27,4,27,0.00
2013-11-1,87,80,74,73,71,68,86,74,56,29.98,29.85,30,5,30,0.00
2013-11-2,89,78,70,73,69,62,96,75,44,29.90,29.78,34,4,34,0.00
2013-11-3,80,73,68,64,61,58,83,68,54,30.00,29.86,41,17,41,0.01
2013-11-4,80,76,72,68,62,54,86,64,44,30.04,29.96,52,24,52,0.11
2013-11-5,81,78,74,70,67,63,87,68,57,30.06,29.98,54,26,54,0.02
2013-11-6,83,78,70,69,67,66,87,71,59,30.03,29.96,43,14,43,0.00
2013-11-7,87,76,69,71,68,64,95,77,49,29.99,29.89,18,3,18,0.00
2013-11-8,83,76,70,72,69,65,93,80,57,30.00,29.90,46,14,46,0.23
2013-11-9,79,75,72,73,71,69,95,86,76,30.08,29.97,47,20,47,0.77
2013-11-10,82,78,74,71,69,67,83,74,65,30.08,30.01,33,12,33,0.00
2013-11-11,82,76,69,70,67,64,92,76,62,30.08,30.01,33,8,33,0.00
2013-11-12,81,73,68,70,67,65,94,82,63,30.04,29.95,25,2,25,0.00
2013-11-13,75,71,68,66,62,54,90,74,59,30.17,29.96,50,22,50,0.08
2013-11-14,75,72,69,61,56,52,66,58,52,30.20,30.09,46,22,46,0.00
2013-11-15,81,76,73,69,65,58,86,67,59,30.10,30.00,36,12,36,0.02
2013-11-16,80,77,72,71,68,63,90,73,64,30.06,29.98,31,6,29,0.13
2013-11-17,84,78,72,72,69,67,89,74,60,30.04,29.97,28,5,28,0.00
2013-11-18,85,76,70,73,69,67,95,81,62,30.00,29.89,18,1,18,0.00
2013-11-19,84,76,71,72,70,68,93,83,61,29.91,29.82,30,3,30,0.00
2013-11-20,84,76,69,73,70,68,96,84,66,30.02,29.89,21,0,21,0.01
2013-11-21,81,76,72,74,71,69,96,86,70,30.10,30.01,34,6,34,0.39
2013-11-22,80,77,72,72,69,66,93,77,67,30.12,30.03,41,18,41,0.34
2013-11-23,82,76,72,70,69,68,87,78,64,30.04,29.94,29,7,29,0.27
2013-11-24,81,73,67,69,66,62,95,80,58,30.10,29.95,46,12,46,0.02
2013-11-25,75,73,71,69,63,58,91,73,63,30.16,30.01,50,27,50,0.10
2013-11-26,83,77,72,74,71,68,92,82,70,30.01,29.80,51,14,51,0.07
2013-11-27,78,71,58,74,64,51,96,79,47,30.08,29.76,47,10,44,0.81
2013-11-28,72,61,47,58,52,44,89,72,53,30.21,30.08,40,13,40,0.00
2013-11-29,76,68,59,61,58,55,92,72,54,30.23,30.15,43,13,43,0.00
2013-11-30,76,68,60,69,62,58,95,83,68,30.17,30.07,48,8,48,0.60
2013-12-1,74,67,62,71,65,60,97,94,84,30.07,29.92,18,2,18,1.45
2013-12-2,74,67,61,67,63,59,97,89,60,29.91,29.79,18,2,18,0.02
2013-12-3,79,69,59,66,62,58,97,80,52,29.97,29.87,12,0,12,0.01
2013-12-4,81,72,64,68,64,62,95,79,54,30.06,29.95,18,1,18,0.00
2013-12-5,82,73,64,71,67,63,96,81,63,30.13,30.04,27,2,27,0.00
2013-12-6,82,76,68,70,67,64,90,75,58,30.15,30.05,38,7,38,0.00
2013-12-7,84,73,65,72,67,64,96,82,54,30.18,30.10,21,0,21,0.02
2013-12-8,82,76,70,70,68,65,92,78,58,30.17,30.09,29,3,29,0.03
2013-12-9,83,77,70,70,66,59,89,71,49,30.16,30.08,36,5,36,0.00
2013-12-10,84,76,70,71,69,67,92,80,61,30.13,30.04,23,1,23,0.00
2013-12-11,83,75,69,74,69,67,96,84,64,30.16,30.08,20,0,20,0.00
2013-12-12,78,70,63,71,65,57,96,83,66,30.19,30.10,40,9,40,0.00
2013-12-13,77,72,63,68,62,56,88,70,60,30.16,30.07,43,15,43,0.00
2013-12-14,82,77,73,70,69,67,89,77,66,30.07,29.96,41,8,41,0.00
2013-12-15,84,76,70,74,70,67,94,83,67,30.02,29.91,35,4,35,0.00
2013-12-16,74,67,61,67,60,57,88,77,63,30.13,30.00,23,10,23,0.00
2013-12-17,77,66,58,63,58,55,94,77,54,30.15,30.06,30,8,30,0.00
2013-12-18,75,65,59,58,56,54,95,75,50,30.20,30.10,29,9,29,0.00
2013-12-19,77,68,56,62,58,54,95,73,52,30.20,30.12,33,5,33,0.00
2013-12-20,81,75,66,68,66,61,85,73,60,30.15,30.07,26,3,26,0.00
2013-12-21,82,78,75,72,70,68,84,77,64,30.11,30.03,44,8,44,0.00
2013-12-22,83,78,76,72,70,68,84,77,64,30.13,30.04,46,13,46,0.00
2013-12-23,83,77,70,72,70,67,92,80,65,30.15,30.08,40,9,40,0.05
2013-12-24,83,71,66,73,65,59,96,84,61,30.14,30.05,40,7,40,0.00
2013-12-25,76,72,69,67,64,61,91,76,67,30.14,30.06,50,18,50,0.03
2013-12-26,78,74,71,69,68,66,88,79,72,30.13,30.03,30,7,30,0.07
2013-12-27,80,74,68,71,68,66,96,83,68,30.16,30.05,32,8,32,0.12
2013-12-28,80,76,74,71,69,66,86,78,71,30.14,29.98,33,8,33,0.01
2013-12-29,81,77,75,72,72,70,93,83,74,30.00,29.90,38,10,38,0.00
2013-12-30,80,73,67,73,68,63,96,86,68,30.11,29.95,20,2,20,0.00
2013-12-31,78,72,66,66,63,59,87,73,58,30.19,30.07,44,16,44,0.00
2014-1-1,80,74,72,72,69,63,93,84,70,30.15,30.01,34,7,34,0.35
2014-1-2,84,76,69,71,68,64,94,77,52,30.01,29.84,43,7,43,0.00